Location: Auttagershofen
(48.1940°N, 10.0237°E)
Time: 21:10:49
(UTC+00:00)

IRS-1C - Pass Details

Date: 18 January 2026
Orbit: 813 x 814 km, 99.0° (Epoch: 17 February)

Event Time Altitude Azimuth Distance (km) Brightness Sun altitude
Rises 06:03:21 0° 16° (NNE) 3,350 7.3 -9.9°
Reaches altitude 10° 06:05:43 10° 19° (NNE) 2,413 6.6 -9.5°
Maximum altitude 06:11:03 72° 104° (ESE) 856 4.5 -8.7°
Drops below altitude 10° 06:16:21 10° 189° (S) 2,395 6.7 -7.9°
Sets 06:18:41 0° 191° (S) 3,322 7.5 -7.5°
